#timestamp,LO_Frequency,Hit,StdDev 
1570888815.6,286046999.8,N
1570888835.4,286047001.9,N
1570888855.3,286047000.5,N
1570888875.1,286047000.5,N
1570888895.9,286047003.9,Y
1570888915.7,286046999.7,P
1570888935.5,286047000.4,N
1570888955.4,286046999.8,N
1570888975.2,286047000.0,N
1570888995.1,286047001.6,Y
1570888996.0,286047001.6,P
1570889015.8,286047002.1,N
1570889035.6,286047000.6,N
1570889055.5,286047001.0,N
1570889075.3,286047001.2,N
1570889095.1,286047000.5,N
1570889115.9,286047000.1,N
1570889135.7,286047001.0,N
1570889155.6,286047004.4,Y
1570889175.4,286047003.1,P
1570889195.2,286047007.2,P
1570889215.1,286047010.8,P
1570889216.0,286047010.8,N
1570889235.8,286047010.2,N
1570889255.7,286047009.4,N
1570889275.5,286047011.6,Y
1570889295.3,286047007.6,P
1570889315.2,286047009.5,P
1570889335.0,286047013.5,P
1570889335.9,286047013.5,Y
1570889355.8,286047006.8,P
1570889375.6,286047008.2,P
1570889395.4,286047009.6,P
1570889415.3,286047013.9,Y
1570889435.1,286047006.3,P
1570889455.9,286047003.5,P
1570889475.7,286047000.7,N
1570889495.5,286047000.9,N
1570889515.4,286046999.6,N
1570889535.2,286046995.9,N
1570889555.0,286046993.7,N
1570889555.9,286046993.7,N
1570889575.8,286046994.8,N
1570889595.6,286046992.3,N
1570889615.5,286046994.8,N
1570889635.3,286046990.6,N
1570889655.1,286046990.8,N
1570889675.9,286046992.3,N
1570889695.7,286046991.9,N
1570889715.6,286046990.4,N
1570889735.4,286046991.6,N
1570889755.2,286046987.0,N
1570889775.1,286046988.1,N
1570889776.0,286046988.1,N
1570889795.8,286046987.7,N
1570889815.6,286046987.7,N
1570889835.5,286046987.1,N
1570889855.3,286046986.5,N
1570889875.2,286046983.8,N
1570889895.9,286046986.1,N
1570889915.7,286046984.6,N
1570889935.6,286046986.4,N
1570889955.4,286046985.6,N
1570889975.2,286046985.5,N
1570889995.1,286046987.6,N
1570889996.0,286046987.6,N
1570890015.8,286046985.8,Y
1570890035.7,286046995.8,P
1570890055.5,286046995.2,N
1570890075.3,286046993.4,N
1570890095.2,286046992.2,Y
1570890115.0,286046999.0,P
1570890115.9,286046999.0,N
1570890135.8,286046997.5,N
1570890155.6,286046997.5,N
1570890175.4,286046997.5,N
1570890195.3,286046995.8,N
1570890215.1,286046993.9,Y
1570890235.9,286046997.2,P
1570890255.7,286046997.7,P
1570890275.5,286046995.0,P
1570890295.4,286046993.3,Y
1570890315.2,286046995.0,P
1570890335.0,286046996.3,P
1570890335.9,286046996.3,P
1570890355.8,286046995.6,Y
1570890375.6,286046999.6,P
1570890395.5,286046997.3,N
1570890415.3,286046995.4,P
1570890435.1,286046996.7,N
1570890455.9,286046996.5,N
1570890475.7,286046995.1,Y
1570890495.6,286046998.1,P
1570890515.4,286046998.2,P
1570890535.2,286046999.2,N
1570890555.1,286046997.2,Y
1570890556.0,286046997.2,P
1570890575.8,286047000.9,N
1570890595.7,286046998.2,N
1570890615.5,286046998.6,N
1570890635.3,286046998.9,N
1570890655.2,286046999.1,N
1570890675.9,286046997.7,N
1570890695.7,286046997.9,N
1570890715.6,286046995.4,Y
1570890735.4,286046997.2,P
1570890755.3,286046999.1,N
1570890775.1,286046999.4,N
1570890776.0,286046999.4,N
1570890795.8,286046997.2,Y
1570890815.7,286046997.1,P
1570890835.5,286046993.5,P
1570890855.4,286046994.3,N
1570890875.2,286046996.0,N
1570890895.0,286046993.3,Y
1570890895.9,286046993.3,P
1570890915.8,286046997.0,N
1570890935.6,286046999.6,N
1570890955.5,286046994.9,N
1570890975.3,286046995.3,N
1570890995.1,286046995.5,N
1570891015.9,286046999.4,N
1570891035.7,286046994.9,N
1570891055.5,286046996.3,N
1570891075.4,286046994.5,N
1570891095.2,286046996.2,N
1570891115.1,286046995.7,N
1570891116.0,286046995.7,N
1570891135.8,286046993.7,Y
1570891155.7,286047001.1,P
1570891175.5,286046998.4,N
1570891195.3,286046998.3,N
1570891215.2,286046997.7,N
1570891235.9,286046999.1,N
1570891255.7,286046997.5,N
1570891275.6,286046999.5,N
1570891295.4,286046999.6,N
1570891315.3,286046997.4,N
1570891335.1,286046995.6,Y
1570891336.0,286046995.6,P
1570891355.8,286046996.7,N
1570891375.7,286046997.1,N
1570891395.5,286046997.8,N
1570891415.4,286046996.7,Y
1570891435.2,286047001.0,P
1570891455.0,286046999.2,N
1570891455.9,286046999.2,N
1570891475.8,286046999.6,N
1570891495.6,286046999.3,N
1570891515.4,286046997.3,N
1570891535.3,286046999.5,N
1570891555.1,286046996.9,N
1570891575.9,286046996.7,N
1570891595.7,286046996.9,N
1570891615.5,286046997.8,N
1570891635.4,286046997.1,N
1570891655.2,286046997.2,N
1570891675.0,286046997.7,N
1570891676.0,286046997.7,N
1570891695.8,286046994.0,Y
1570891715.6,286046995.1,P
1570891735.5,286046995.6,N
1570891755.3,286046995.2,P
1570891775.1,286046997.2,N
1570891795.9,286046995.5,Y
1570891815.7,286046998.6,P
1570891835.6,286047000.7,N
1570891855.4,286047000.6,N
1570891875.2,286046999.3,N
1570891895.1,286047001.2,N
1570891896.0,286047001.2,N
1570891915.8,286046996.9,N
1570891935.7,286046997.2,N
1570891955.5,286046998.8,N
1570891975.3,286047000.6,N
1570891995.2,286046998.1,N
1570892015.9,286047002.1,N
1570892035.7,286047002.6,N
1570892055.6,286047000.1,N
1570892075.4,286046998.5,N
1570892095.3,286046999.9,N
1570892115.1,286046998.2,N
1570892116.0,286046998.2,N
1570892135.8,286046998.5,N
1570892155.7,286046998.7,N
1570892175.5,286047001.0,N
1570892195.3,286047000.4,N
1570892215.2,286047000.6,N
1570892235.0,286046998.4,N
1570892235.9,286046998.4,N
1570892255.8,286047000.8,N
1570892275.6,286046998.4,N
1570892295.4,286046996.9,N
1570892315.3,286046998.9,N
1570892335.1,286046997.0,N
1570892355.8,286046995.5,N
1570892375.7,286046997.4,N
1570892395.5,286046996.6,N
